Radiation Dose at Monitoring Post of Fukushima Daini Nuclear Power Station
Date,Time,MP-1(microSv/h),MP-2(microSv/h),MP-3(microSv/h),MP-4(microSv/h),MP-5(microSv/h),MP-6(microSv/h),MP-7(microSv/h),Wind Direction,Wind Velocity(m/s),Rain
2018/03/09,00:00,0.313,0.194,0.314,0.299,0.294,0.157,0.096,south,14.6,No
2018/03/09,00:10,0.312,0.194,0.314,0.299,0.296,0.158,0.096,south,15.9,No
2018/03/09,00:20,0.313,0.196,0.316,0.302,0.295,0.157,0.096,south,16.6,No
2018/03/09,00:30,0.312,0.195,0.315,0.300,0.296,0.157,0.096,south,16.6,No
2018/03/09,00:40,0.312,0.194,0.316,0.301,0.295,0.159,0.096,south,14.7,Yes
2018/03/09,00:50,0.311,0.195,0.317,0.300,0.296,0.157,0.095,south,16.5,Yes
2018/03/09,01:00,0.313,0.195,0.315,0.301,0.297,0.158,0.096,south,17.0,Yes
2018/03/09,01:10,0.313,0.193,0.316,0.300,0.293,0.158,0.096,south,16.1,Yes
2018/03/09,01:20,0.311,0.196,0.316,0.299,0.295,0.159,0.096,south,14.7,Yes
2018/03/09,01:30,0.314,0.195,0.316,0.301,0.294,0.160,0.097,south,14.7,Yes
2018/03/09,01:40,0.313,0.196,0.316,0.303,0.296,0.158,0.097,south,15.1,Yes
2018/03/09,01:50,0.312,0.195,0.315,0.299,0.295,0.159,0.097,south,16.1,Yes
2018/03/09,02:00,0.312,0.196,0.316,0.301,0.295,0.159,0.097,south,16.8,Yes
2018/03/09,02:10,0.310,0.196,0.313,0.299,0.294,0.159,0.098,south,15.6,Yes
2018/03/09,02:20,0.313,0.196,0.314,0.297,0.295,0.160,0.098,south,15.3,Yes
2018/03/09,02:30,0.311,0.195,0.316,0.300,0.297,0.160,0.099,south,15.1,Yes
2018/03/09,02:40,0.312,0.197,0.313,0.298,0.295,0.160,0.099,south,16.2,Yes
2018/03/09,02:50,0.313,0.195,0.314,0.299,0.296,0.160,0.098,south,16.9,Yes
2018/03/09,03:00,0.312,0.195,0.313,0.298,0.296,0.161,0.100,south,17.0,Yes
2018/03/09,03:10,0.313,0.197,0.312,0.297,0.295,0.160,0.099,south,16.1,Yes
2018/03/09,03:20,0.311,0.195,0.313,0.298,0.296,0.161,0.099,south,15.4,Yes
2018/03/09,03:30,0.311,0.198,0.310,0.295,0.295,0.159,0.099,south,14.2,Yes
2018/03/09,03:40,0.310,0.197,0.313,0.295,0.294,0.160,0.100,south,15.9,Yes
2018/03/09,03:50,0.308,0.196,0.310,0.294,0.296,0.161,0.100,south,18.0,Yes
2018/03/09,04:00,0.312,0.198,0.311,0.296,0.295,0.161,0.100,south,15.6,Yes
2018/03/09,04:10,0.309,0.196,0.310,0.295,0.294,0.161,0.101,south-southwest,14.2,Yes
2018/03/09,04:20,0.310,0.197,0.310,0.293,0.293,0.160,0.101,south,14.8,Yes
2018/03/09,04:30,0.309,0.197,0.311,0.295,0.294,0.160,0.102,south,15.4,Yes
2018/03/09,04:40,0.307,0.196,0.308,0.294,0.294,0.160,0.101,south,16.8,Yes
2018/03/09,04:50,0.310,0.198,0.310,0.295,0.294,0.160,0.101,south,18.3,Yes
2018/03/09,05:00,0.307,0.198,0.311,0.295,0.295,0.162,0.102,south,18.4,Yes
2018/03/09,05:10,0.309,0.198,0.309,0.294,0.295,0.162,0.102,south,18.9,Yes
2018/03/09,05:20,0.309,0.198,0.310,0.295,0.295,0.161,0.102,south,17.6,Yes
2018/03/09,05:30,0.308,0.197,0.308,0.295,0.296,0.162,0.103,south,16.5,Yes
2018/03/09,05:40,0.309,0.198,0.309,0.296,0.294,0.161,0.103,south,17.4,Yes
2018/03/09,05:50,0.309,0.199,0.310,0.295,0.295,0.162,0.104,south-southeast,18.5,Yes
2018/03/09,06:00,0.308,0.198,0.307,0.294,0.296,0.161,0.102,south-southeast,16.6,Yes
2018/03/09,06:10,0.307,0.198,0.308,0.295,0.296,0.160,0.102,south-southeast,15.8,Yes
2018/03/09,06:20,0.305,0.196,0.306,0.295,0.295,0.159,0.103,south,18.7,Yes
2018/03/09,06:30,0.307,0.197,0.305,0.296,0.296,0.160,0.102,south,15.9,Yes
2018/03/09,06:40,0.308,0.198,0.308,0.295,0.297,0.160,0.102,south,16.9,Yes
2018/03/09,06:50,0.309,0.197,0.307,0.298,0.295,0.159,0.103,south,19.1,Yes
2018/03/09,07:00,0.308,0.198,0.309,0.295,0.295,0.160,0.102,south,18.1,Yes
2018/03/09,07:10,0.309,0.198,0.307,0.296,0.295,0.159,0.102,south,14.7,Yes
2018/03/09,07:20,0.308,0.199,0.309,0.297,0.296,0.160,0.102,south,19.5,Yes
2018/03/09,07:30,0.308,0.198,0.311,0.298,0.297,0.159,0.100,south,17.6,Yes
2018/03/09,07:40,0.308,0.196,0.307,0.296,0.294,0.158,0.101,south,20.3,Yes
2018/03/09,07:50,0.305,0.196,0.305,0.293,0.295,0.158,0.100,south,17.1,Yes
2018/03/09,08:00,0.303,0.195,0.305,0.290,0.292,0.158,0.101,south,16.1,Yes
2018/03/09,08:10,0.305,0.195,0.302,0.291,0.294,0.158,0.102,south-southeast,16.9,Yes
2018/03/09,08:20,0.299,0.195,0.298,0.287,0.289,0.157,0.101,south-southwest,16.7,Yes
2018/03/09,08:30,0.303,0.196,0.300,0.292,0.291,0.157,0.103,south-southwest,11.7,Yes
2018/03/09,08:40,0.302,0.198,0.304,0.296,0.296,0.159,0.102,south-southwest,10.9,Yes
2018/03/09,08:50,0.306,0.196,0.306,0.298,0.294,0.159,0.103,west,6.9,Yes
2018/03/09,09:00,0.304,0.198,0.306,0.297,0.296,0.160,0.105,west-northwest,6.8,Yes
2018/03/09,09:10,0.308,0.201,0.309,0.297,0.297,0.161,0.106,west,7.3,Yes
2018/03/09,09:20,0.310,0.201,0.310,0.299,0.298,0.162,0.107,west,5.8,Yes
2018/03/09,09:30,0.308,0.200,0.312,0.299,0.301,0.162,0.106,west,4.7,Yes
2018/03/09,09:40,0.310,0.200,0.312,0.300,0.297,0.162,0.106,west,4.3,Yes
2018/03/09,09:50,0.312,0.200,0.312,0.301,0.301,0.163,0.106,west,5.4,Yes
2018/03/09,10:00,0.311,0.200,0.313,0.300,0.299,0.162,0.105,west,4.5,Yes
2018/03/09,10:10,0.312,0.201,0.313,0.301,0.298,0.162,0.105,west-northwest,4.6,Yes
2018/03/09,10:20,0.312,0.200,0.312,0.301,0.300,0.163,0.105,northwest,5.8,No
2018/03/09,10:30,0.312,0.200,0.315,0.301,0.297,0.162,0.104,northwest,4.4,Yes
2018/03/09,10:40,0.313,0.199,0.313,0.301,0.300,0.162,0.103,-,-,Yes
2018/03/09,10:50,0.310,0.199,0.312,0.300,0.299,0.160,0.104,-,-,Yes
2018/03/09,11:00,0.313,0.200,0.315,0.302,0.299,0.163,0.104,-,-,Yes
2018/03/09,11:10,0.311,0.200,0.313,0.302,0.301,0.163,0.105,-,-,Yes
2018/03/09,11:20,0.313,0.200,0.314,0.303,0.300,0.164,0.105,-,-,Yes
2018/03/09,11:30,0.315,0.200,0.315,0.302,0.300,0.164,0.105,-,-,Yes
2018/03/09,11:40,0.314,0.200,0.314,0.302,0.300,0.163,0.103,-,-,Yes
2018/03/09,11:50,0.313,0.200,0.314,0.302,0.299,0.165,0.107,-,-,Yes
2018/03/09,12:00,0.315,0.202,0.315,0.302,0.300,0.166,0.108,-,-,Yes
2018/03/09,12:10,0.316,0.202,0.314,0.303,0.301,0.166,0.108,-,-,Yes
2018/03/09,12:20,0.316,0.203,0.315,0.302,0.303,0.168,0.110,-,-,Yes
2018/03/09,12:30,0.318,0.205,0.317,0.301,0.304,0.168,0.110,-,-,Yes
2018/03/09,12:40,0.318,0.203,0.317,0.304,0.304,0.169,0.110,-,-,Yes
2018/03/09,12:50,0.318,0.205,0.317,0.302,0.303,0.169,0.109,-,-,Yes
2018/03/09,13:00,0.318,0.204,0.317,0.303,0.304,0.168,0.110,-,-,Yes
2018/03/09,13:10,0.318,0.204,0.318,0.304,0.303,0.168,0.110,-,-,Yes
2018/03/09,13:20,0.317,0.203,0.316,0.303,0.303,0.167,0.108,-,-,No
2018/03/09,13:30,0.316,0.201,0.316,0.302,0.302,0.166,0.106,-,-,Yes
2018/03/09,13:40,0.315,0.200,0.318,0.304,0.302,0.166,0.106,-,-,Yes
2018/03/09,13:50,0.315,0.202,0.318,0.304,0.303,0.167,0.107,-,-,Yes
2018/03/09,14:00,0.316,0.203,0.319,0.303,0.303,0.166,0.108,-,-,Yes
2018/03/09,14:10,0.316,0.202,0.319,0.302,0.304,0.167,0.108,-,-,Yes
2018/03/09,14:20,0.316,0.202,0.319,0.305,0.304,0.167,0.108,-,-,Yes
2018/03/09,14:30,0.317,0.203,0.320,0.304,0.304,0.168,0.110,-,-,Yes
2018/03/09,14:40,0.320,0.203,0.320,0.306,0.301,0.169,0.108,north-northwest,2.8,Yes
2018/03/09,14:50,0.319,0.204,0.319,0.306,0.303,0.169,0.109,north-northwest,4.9,Yes
2018/03/09,15:00,0.318,0.205,0.319,0.306,0.304,0.169,0.110,north-northwest,5.6,Yes
2018/03/09,15:10,0.319,0.205,0.321,0.306,0.305,0.169,0.110,north,8.2,Yes
2018/03/09,15:20,0.318,0.203,0.319,0.305,0.304,0.169,0.109,north,8.1,Yes
2018/03/09,15:30,0.317,0.202,0.318,0.305,0.302,0.166,0.107,north,8.8,Yes
2018/03/09,15:40,0.317,0.200,0.316,0.303,0.301,0.165,0.106,north-northwest,8.5,No
2018/03/09,15:50,0.314,0.198,0.318,0.302,0.300,0.164,0.104,north-northwest,6.5,Yes
2018/03/09,16:00,0.313,0.198,0.316,0.303,0.299,0.162,0.103,north,7.1,Yes
2018/03/09,16:10,0.314,0.199,0.315,0.302,0.300,0.163,0.104,north,7.3,Yes
2018/03/09,16:20,0.316,0.201,0.318,0.305,0.302,0.166,0.105,north-northwest,8.2,Yes
2018/03/09,16:30,0.315,0.201,0.318,0.305,0.302,0.165,0.105,north,7.9,Yes
2018/03/09,16:40,0.315,0.202,0.317,0.304,0.301,0.165,0.105,north,7.8,Yes
2018/03/09,16:50,0.316,0.199,0.316,0.303,0.300,0.164,0.104,north,8.1,Yes
2018/03/09,17:00,0.314,0.197,0.317,0.302,0.300,0.162,0.103,north,10.1,Yes
2018/03/09,17:10,0.314,0.197,0.317,0.301,0.298,0.161,0.102,north,9.6,Yes
2018/03/09,17:20,0.312,0.197,0.315,0.302,0.299,0.161,0.100,north-northwest,9.7,No
2018/03/09,17:30,0.312,0.195,0.313,0.299,0.296,0.160,0.099,north,8.1,No
2018/03/09,17:40,0.311,0.195,0.315,0.298,0.298,0.159,0.099,north,8.1,Yes
2018/03/09,17:50,0.310,0.194,0.315,0.299,0.296,0.159,0.099,north,9.3,Yes
2018/03/09,18:00,0.310,0.193,0.313,0.299,0.296,0.158,0.099,north,9.3,No
2018/03/09,18:10,0.310,0.192,0.314,0.298,0.294,0.158,0.097,north,9.5,No
2018/03/09,18:20,0.310,0.193,0.313,0.299,0.295,0.157,0.096,north,8.6,No
2018/03/09,18:30,0.310,0.193,0.313,0.298,0.295,0.157,0.097,north,7.3,No
2018/03/09,18:40,0.311,0.192,0.313,0.298,0.294,0.157,0.097,north,8.6,No
2018/03/09,18:50,0.309,0.192,0.313,0.298,0.295,0.157,0.096,north,7.6,No
2018/03/09,19:00,0.309,0.192,0.313,0.298,0.293,0.157,0.097,north,9.6,No
2018/03/09,19:10,0.310,0.192,0.312,0.298,0.293,0.157,0.096,north,9.2,No
2018/03/09,19:20,0.310,0.191,0.314,0.298,0.295,0.157,0.096,north,7.7,No
2018/03/09,19:30,0.308,0.191,0.315,0.299,0.295,0.157,0.095,north,8.1,No
2018/03/09,19:40,0.310,0.192,0.315,0.299,0.294,0.156,0.095,north,8.1,No
2018/03/09,19:50,0.311,0.192,0.312,0.299,0.295,0.156,0.096,north,6.8,No
2018/03/09,20:00,0.309,0.193,0.314,0.297,0.294,0.156,0.095,north,7.7,No
2018/03/09,20:10,0.309,0.191,0.315,0.299,0.294,0.157,0.095,north,8.7,No
2018/03/09,20:20,0.312,0.190,0.312,0.299,0.294,0.156,0.096,north,9.5,No
2018/03/09,20:30,0.311,0.192,0.313,0.299,0.294,0.156,0.096,north,8.8,No
2018/03/09,20:40,0.310,0.192,0.315,0.298,0.294,0.156,0.096,north,8.7,No
2018/03/09,20:50,0.311,0.192,0.314,0.300,0.295,0.158,0.095,north,7.3,No
2018/03/09,21:00,0.312,0.192,0.314,0.299,0.295,0.156,0.095,north,6.8,No
2018/03/09,21:10,0.310,0.192,0.315,0.298,0.294,0.157,0.095,north-northeast,11.7,No
2018/03/09,21:20,0.311,0.192,0.315,0.301,0.292,0.156,0.096,north-northeast,11.4,No
2018/03/09,21:30,0.312,0.193,0.315,0.300,0.297,0.157,0.096,north-northeast,11.5,No
2018/03/09,21:40,0.311,0.193,0.314,0.299,0.295,0.157,0.096,north-northeast,11.5,No
2018/03/09,21:50,0.312,0.192,0.316,0.300,0.295,0.158,0.096,north-northeast,10.4,No
2018/03/09,22:00,0.314,0.194,0.316,0.300,0.297,0.158,0.097,north-northeast,12.8,Yes
2018/03/09,22:10,0.312,0.194,0.316,0.300,0.297,0.159,0.097,north,11.4,Yes
2018/03/09,22:20,0.313,0.194,0.316,0.301,0.297,0.159,0.097,north,11.1,Yes
2018/03/09,22:30,0.315,0.196,0.317,0.303,0.298,0.161,0.097,north-northeast,12.0,Yes
2018/03/09,22:40,0.316,0.196,0.318,0.303,0.301,0.161,0.098,north,11.4,Yes
2018/03/09,22:50,0.317,0.198,0.319,0.304,0.299,0.162,0.100,north-northeast,10.3,Yes
2018/03/09,23:00,0.316,0.199,0.318,0.304,0.301,0.162,0.100,north,10.4,Yes
2018/03/09,23:10,0.316,0.198,0.318,0.303,0.301,0.161,0.099,north,9.0,No
2018/03/09,23:20,0.314,0.199,0.319,0.304,0.299,0.162,0.100,north,9.5,No
2018/03/09,23:30,0.316,0.199,0.318,0.303,0.299,0.162,0.099,north-northeast,11.5,Yes
2018/03/09,23:40,0.315,0.197,0.317,0.302,0.298,0.161,0.098,north-northeast,10.9,Yes
2018/03/09,23:50,0.315,0.197,0.319,0.303,0.298,0.162,0.099,north,10.3,Yes
